Wind_Speed
16 16 16 17 17 17 18 18 19 20 21 22 23 24 24 24 23 23 22 22 21 21 20 20 20 20 20 20 20 19 19 19 18 18 18 19 19 19 19 19 19 19 18 18 18 18 18 19 19 19 20 20 21 21 21 22 23 24 25 25 24 24 25 26 26 26 27 26 25 24 24 25 27 27 28 27 28 28 25 23 23 24 26 27 27 27 27 28
17 17 17 17 18 18 18 19 20 21 22 23 24 24 24 24 23 23 22 22 21 20 20 20 20 20 20 20 20 20 19 19 19 19 20 20 20 20 20 20 19 19 19 19 19 19 19 19 19 20 21 21 22 22 22 23 23 24 25 24 24 25 25 25 25 25 25 25 25 24 23 24 26 27 27 27 27 26 25 23 22 24 25 26 26 26 27 28
17 17 17 18 18 18 19 20 21 22 23 23 23 23 23 23 23 22 22 21 21 20 20 20 20 21 21 21 21 20 20 21 21 21 21 21 21 21 21 20 20 19 19 20 20 20 20 20 20 21 21 22 22 22 23 22 23 24 24 24 25 25 25 24 24 25 25 25 25 24 23 24 25 26 26 26 25 25 24 22 21 22 24 26 26 26 26 27
17 18 18 18 18 18 19 20 21 22 22 22 22 22 22 22 22 21 21 21 20 20 20 20 20 21 21 21 21 22 22 22 23 23 23 22 22 21 21 21 20 20 21 21 21 21 21 21 21 21 22 23 22 22 23 22 23 24 23 24 25 24 24 24 25 25 24 24 24 23 23 23 24 25 25 25 24 24 24 22 22 23 23 24 25 25 25 26
18 18 18 18 18 18 19 20 21 21 21 21 21 21 21 21 20 20 20 20 20 20 20 20 20 21 21 21 22 22 22 23 23 23 23 23 23 22 22 22 22 22 22 22 23 22 22 22 22 22 23 23 22 23 23 22 22 22 23 24 24 24 25 24 24 24 23 23 23 22 23 23 23 24 24 24 25 26 25 23 24 26 26 26 27 25 25 25
18 18 18 18 18 18 19 19 19 19 19 19 19 19 19 19 19 18 18 18 18 19 19 19 20 20 20 21 21 21 22 22 22 22 22 23 23 23 23 23 23 23 23 24 24 24 23 23 23 22 23 22 22 23 22 21 21 22 22 23 23 24 25 24 23 22 22 22 22 22 23 23 23 24 24 24 25 26 26 24 24 26 27 27 28 27 26 24
18 17 17 17 17 17 18 18 18 17 17 17 17 17 16 17 16 16 16 16 16 17 18 18 19 19 19 20 20 20 21 21 21 21 22 22 23 23 23 23 23 24 24 24 24 24 24 23 23 22 22 23 23 23 21 21 21 22 22 22 23 24 25 24 23 22 22 22 22 23 23 23 24 24 24 24 25 24 24 25 25 25 25 26 27 26 25 24
17 17 17 16 16 17 17 17 16 15 15 15 15 14 14 14 14 14 14 14 14 15 16 16 17 18 18 19 19 19 19 19 19 20 20 21 21 22 22 23 23 24 24 24 23 23 23 23 23 22 23 23 23 23 22 22 23 23 23 23 24 25 26 25 24 24 24 23 23 23 24 24 25 25 24 24 24 24 24 25 25 25 25 26 26 25 24 23
17 16 16 15 15 16 16 15 15 14 13 13 12 12 12 12 12 12 12 12 13 13 14 15 16 16 17 17 18 18 17 18 18 18 18 19 20 20 21 22 22 23 22 22 21 21 21 22 22 22 24 23 24 24 23 24 25 24 24 25 26 26 27 26 25 26 25 25 24 24 24 24 24 24 24 24 23 23 23 24 24 25 25 25 24 24 24 24
17 16 15 15 15 15 15 14 14 13 12 12 11 10 10 10 10 10 11 11 11 11 12 13 13 14 15 16 16 16 16 16 16 16 17 17 18 18 19 19 20 20 20 20 19 20 20 21 22 22 24 24 25 25 24 25 25 24 25 25 26 27 28 27 27 27 27 26 25 25 24 23 23 23 23 23 23 22 23 23 23 24 25 25 24 24 23 23
16 16 15 14 14 15 14 14 13 13 12 11 10 10 9 8 8 8 9 9 9 10 10 11 12 13 13 14 15 15 15 15 14 15 16 16 16 16 16 17 17 18 18 18 18 19 20 21 22 23 24 24 24 25 25 25 24 24 25 25 26 27 28 28 28 28 28 27 26 25 24 22 23 24 23 22 22 23 23 24 24 25 26 26 25 25 24 23
16 15 15 14 14 14 14 14 13 13 12 11 11 10 9 8 7 7 7 7 7 8 9 10 10 12 12 13 14 14 14 14 14 14 14 14 14 14 15 14 15 15 16 17 17 18 19 20 22 23 24 24 25 25 24 25 24 25 25 24 25 26 27 28 28 28 28 28 27 25 22 22 24 24 23 23 23 24 25 26 27 27 27 27 27 26 25 25
16 15 15 15 14 14 14 13 13 12 12 11 11 11 10 9 8 7 6 6 5 7 8 9 10 11 12 13 13 13 14 14 13 14 13 13 13 13 13 13 13 14 15 15 16 16 18 19 20 22 23 23 25 24 24 25 24 25 24 23 22 23 26 27 27 27 28 28 27 24 18 19 26 27 24 24 24 25 26 27 28 28 28 28 28 27 26 25
16 16 15 15 15 14 14 13 13 12 12 11 11 11 11 10 10 9 8 6 6 6 7 8 9 10 12 12 13 14 14 14 13 13 13 14 13 12 11 11 11 12 13 14 15 15 16 17 18 19 21 22 23 22 24 24 24 24 22 22 21 19 25 27 25 26 27 28 27 25 18 15 23 27 25 26 25 26 27 27 28 28 28 28 28 28 27 26
16 16 15 15 15 15 14 13 13 12 12 12 11 11 11 11 11 10 10 8 7 7 7 8 8 9 11 12 13 14 14 14 14 13 13 14 13 12 11 10 10 10 11 12 13 14 14 15 15 16 18 19 20 21 22 22 23 23 20 22 21 18 25 27 23 26 28 28 27 26 21 15 22 28 26 26 26 26 27 27 28 28 28 28 29 28 27 27
16 16 16 16 16 15 15 14 13 13 12 12 12 12 12 12 11 11 11 10 10 9 9 10 9 10 11 11 12 13 14 14 14 14 14 14 13 12 11 10 9 9 10 11 12 12 12 12 13 14 15 16 18 19 21 21 22 22 21 24 21 21 26 24 23 27 26 26 27 26 22 16 23 28 26 26 26 26 27 27 28 28 29 29 29 29 28 29
16 16 16 16 16 16 15 15 14 13 13 13 12 12 12 12 12 12 12 11 11 11 11 11 11 12 12 12 12 13 13 14 15 15 16 15 14 13 12 11 9 9 10 10 10 10 10 10 11 12 13 14 16 17 18 18 20 21 22 23 22 23 21 18 23 27 25 26 28 27 25 24 27 27 26 27 26 26 27 27 27 28 28 29 29 29 29 29
16 16 16 16 16 15 15 15 14 14 13 13 13 13 13 13 12 12 12 12 12 12 13 13 13 13 13 13 14 13 13 14 14 15 16 15 15 14 13 12 11 10 10 10 10 9 9 9 10 12 13 13 14 15 16 17 19 20 21 21 22 23 19 18 24 26 25 26 27 25 24 29 31 27 27 27 26 27 27 27 27 27 27 28 28 28 28 28
16 16 16 15 15 15 15 15 15 14 14 14 13 13 13 13 13 13 13 13 13 13 14 14 15 15 15 15 15 14 13 13 13 14 15 15 15 15 15 14 13 12 11 10 9 9 9 10 11 12 13 13 13 15 16 16 17 17 19 20 20 21 21 23 25 24 24 23 25 26 24 29 30 26 27 27 27 28 29 29 28 28 28 28 28 27 26 25
16 15 15 15 15 15 15 15 15 14 14 14 14 14 14 13 13 13 13 14 13 14 14 15 15 15 15 15 15 15 14 14 14 13 14 14 15 15 15 15 15 13 12 11 10 10 11 11 13 14 13 12 11 13 13 13 14 15 16 17 19 20 21 25 25 23 23 21 24 27 24 27 28 26 27 27 27 28 29 31 30 29 30 29 29 28 26 24
15 15 15 15 14 14 14 15 15 15 15 15 14 14 14 14 14 14 14 15 14 15 15 15 15 16 16 16 15 15 15 15 15 14 14 14 15 15 15 15 15 15 14 12 12 12 13 14 16 16 14 12 11 12 12 12 13 14 15 16 17 17 18 22 22 21 21 19 23 26 22 25 26 24 25 24 25 27 28 31 30 30 29 29 29 28 26 24
16 15 15 15 15 15 15 15 15 15 15 15 15 15 15 15 15 15 16 16 16 17 17 16 17 17 18 17 16 16 16 16 15 15 15 15 15 15 15 15 16 16 15 14 14 14 16 19 19 18 16 15 14 13 13 13 13 13 15 15 15 16 19 20 20 21 21 18 22 24 20 23 24 21 21 21 22 24 27 28 29 29 28 29 30 27 25 24
15 15 15 15 15 15 15 15 16 16 16 16 16 16 16 16 16 17 17 18 18 18 18 18 19 19 19 19 18 18 17 17 17 16 15 16 16 16 16 16 16 17 16 15 16 15 19 22 21 20 19 18 16 16 15 15 15 16 16 16 17 19 18 18 21 23 21 20 23 23 20 22 24 21 21 21 21 23 25 27 28 29 29 30 30 27 25 24
15 15 16 15 16 16 16 16 16 16 17 17 17 17 17 17 18 18 18 18 19 19 20 19 20 20 20 20 19 19 19 18 18 17 16 16 16 16 17 17 18 18 16 16 16 17 22 22 19 21 21 19 18 18 18 18 19 19 18 18 20 22 19 19 24 24 21 21 24 24 22 22 25 25 25 24 23 24 26 28 29 29 30 30 29 27 25 25
16 16 17 17 17 17 17 17 17 18 18 18 18 18 18 19 19 19 18 19 19 19 20 20 21 21 21 21 21 21 20 19 19 18 17 17 16 17 18 17 18 17 17 16 16 19 23 22 20 21 21 19 19 19 19 19 20 21 20 21 23 24 23 24 27 26 23 23 26 26 22 21 26 28 29 28 25 26 28 30 31 30 30 30 29 28 26 25
17 18 18 18 19 18 18 18 18 18 19 19 19 19 19 19 18 18 18 18 18 19 19 20 20 20 20 21 21 20 21 20 20 19 19 18 18 18 18 18 17 17 16 16 17 20 22 21 21 21 20 20 19 19 20 19 20 22 21 22 23 25 25 26 28 27 24 23 26 26 20 21 25 26 29 29 26 28 30 30 32 31 31 30 30 29 28 26
17 18 18 18 19 19 19 18 18 19 19 19 19 19 19 19 18 17 16 17 18 18 18 19 19 19 19 19 19 19 20 20 20 20 19 18 19 19 19 19 18 18 17 16 17 20 21 20 20 20 19 18 18 20 21 18 19 21 21 21 23 24 26 27 27 26 25 26 29 28 24 25 25 24 28 29 25 27 29 31 33 32 31 32 31 31 30 28
16 16 17 17 17 18 18 18 18 19 18 18 18 18 18 18 17 16 15 16 17 17 17 17 18 18 17 18 18 18 18 18 18 18 18 18 19 19 20 20 19 19 18 17 19 20 20 20 20 19 17 16 18 20 19 17 18 20 21 22 22 24 26 26 27 26 27 29 28 27 27 27 25 25 28 30 28 27 30 34 34 32 32 32 31 31 30 29
16 16 16 16 17 17 18 18 18 18 17 17 18 17 16 17 16 15 14 16 17 16 16 16 17 18 17 17 17 17 16 16 16 16 16 17 17 18 19 20 19 19 18 18 19 19 19 20 20 19 18 17 20 20 19 18 18 19 21 21 22 24 24 25 26 25 28 30 27 25 27 26 24 22 24 28 28 27 32 36 35 33 33 33 32 31 31 31
17 18 18 18 17 17 17 17 17 17 16 16 16 16 16 16 15 14 15 15 16 16 15 16 17 17 16 16 17 17 16 15 14 14 14 14 14 15 16 17 17 17 17 17 18 18 19 19 19 19 18 18 19 19 19 19 18 18 20 20 21 23 23 24 25 26 27 28 26 26 27 27 26 22 24 28 28 28 32 35 34 33 34 33 33 32 32 32
20 20 19 19 18 17 17 17 16 16 15 15 15 15 15 14 14 15 15 14 15 16 16 16 16 15 16 16 16 16 15 15 14 14 14 13 14 15 15 15 15 15 16 16 16 17 17 17 18 18 17 17 18 19 19 19 19 18 18 18 19 21 22 23 24 26 25 23 24 26 25 25 23 21 25 28 26 27 30 31 31 32 32 32 32 32 31 31
22 21 21 20 18 17 17 16 16 16 15 15 15 15 14 14 14 15 15 14 16 16 17 16 15 15 15 15 15 15 14 14 13 13 13 13 13 13 13 13 13 12 12 13 13 13 14 14 15 15 15 15 15 17 17 18 18 17 17 17 19 20 21 22 21 20 19 20 23 25 24 24 21 20 25 25 21 22 25 27 28 27 28 28 28 28 27 27
22 22 21 20 19 18 17 16 16 16 15 15 15 15 15 15 15 15 15 15 16 16 16 16 15 14 15 15 14 14 13 12 11 11 11 12 12 11 11 10 9 9 9 9 9 9 10 11 12 12 12 12 12 13 14 16 16 16 16 16 19 19 19 21 21 16 15 19 24 24 24 24 20 20 26 23 20 20 21 23 24 23 23 22 22 22 20 20
22 22 21 21 20 18 17 17 16 16 16 16 16 16 16 16 15 15 16 16 15 15 15 16 15 15 16 16 14 13 13 12 11 11 10 11 11 11 10 9 8 9 9 8 9 8 8 9 10 10 10 10 10 11 12 14 15 15 15 16 18 19 19 21 20 16 15 17 20 22 23 24 22 24 27 23 20 21 21 22 23 23 23 21 20 18 16 16
23 22 21 21 20 19 18 18 17 17 17 17 17 17 17 17 17 17 17 17 16 15 14 15 15 15 16 17 16 15 14 13 12 12 11 12 12 12 11 10 10 10 10 10 9 9 9 11 12 12 12 11 11 12 13 14 15 15 16 17 19 19 21 22 22 21 21 21 23 25 27 27 25 26 27 25 22 22 22 23 24 24 24 22 20 18 15 14
24 23 22 21 21 20 19 19 19 19 19 18 19 19 19 19 18 18 19 19 18 17 15 15 16 17 18 19 19 17 16 15 14 14 14 14 14 13 12 12 12 12 12 12 12 11 10 12 14 14 14 14 14 15 15 15 16 15 16 18 19 19 21 22 23 24 25 28 29 30 31 29 26 27 27 26 24 23 23 23 23 23 24 23 21 19 16 14
25 24 23 22 22 22 22 21 20 20 21 21 21 21 21 21 20 20 21 21 20 19 18 18 19 19 19 21 22 21 18 18 17 16 16 16 16 16 15 14 15 14 14 14 15 14 13 14 15 14 16 17 16 17 18 18 18 18 18 19 19 20 22 23 24 24 26 28 28 29 31 29 26 27 28 26 26 25 23 23 23 23 23 23 22 20 18 16
26 25 25 24 23 23 23 23 22 22 22 22 23 22 22 22 22 22 22 22 22 22 21 22 22 21 20 21 23 23 21 21 20 18 18 18 18 19 18 18 18 17 17 17 18 18 17 18 18 17 18 19 19 19 20 20 20 19 20 21 20 21 23 23 23 24 25 26 26 26 28 27 24 25 27 28 28 26 23 23 23 23 22 23 22 21 20 18
26 26 26 25 25 25 25 25 24 23 23 24 24 24 23 23 23 23 24 24 24 23 24 25 24 23 23 23 24 23 22 23 22 20 21 21 21 21 21 21 21 20 20 21 21 21 20 20 22 21 21 20 20 21 20 21 21 21 22 24 23 22 24 24 25 26 25 24 24 23 24 26 24 22 25 28 27 25 25 24 23 21 21 22 23 22 21 19
27 27 27 26 26 26 26 26 26 26 25 25 25 25 24 24 24 24 25 25 26 25 26 26 26 26 26 25 25 25 24 25 24 23 23 23 23 24 24 24 24 24 24 24 25 25 24 24 24 25 25 22 21 21 20 21 21 22 23 24 23 22 22 23 24 26 28 26 26 28 29 30 26 22 22 25 25 25 26 25 24 22 22 23 24 24 23 22
28 29 28 27 27 27 27 27 28 28 28 27 27 26 25 25 24 24 25 26 26 27 27 27 27 28 28 27 28 27 26 26 26 25 26 26 26 26 27 26 27 27 27 28 28 28 28 28 27 28 28 26 25 24 23 24 25 25 25 24 24 24 23 23 23 24 26 27 28 30 32 31 29 28 29 30 29 29 28 28 28 26 25 25 25 26 26 24
28 29 29 28 28 28 28 29 29 29 29 30 29 29 27 26 25 25 25 25 26 27 27 28 28 28 28 28 28 28 27 27 27 27 27 28 28 28 29 29 29 30 30 31 32 31 31 31 31 31 30 29 29 29 27 28 28 28 28 27 28 28 27 27 29 27 27 29 30 30 31 31 31 34 35 34 34 35 34 33 33 32 29 28 28 28 28 28
26 28 28 28 29 29 29 29 29 30 31 32 32 32 30 29 27 27 26 26 27 27 28 28 28 28 27 28 28 28 29 29 29 29 29 30 30 30 31 31 32 32 33 33 34 34 34 34 34 34 34 33 33 32 30 30 30 30 28 26 26 28 28 28 30 29 29 32 31 31 32 32 30 32 33 34 36 38 39 37 37 37 35 32 32 31 31 32
24 26 27 28 29 29 30 30 30 30 31 32 33 34 33 32 31 30 29 28 29 29 29 29 29 29 29 29 29 30 30 31 31 31 32 32 32 32 33 33 34 34 35 35 36 36 36 36 36 35 36 37 36 34 33 32 31 31 29 26 27 31 31 28 27 29 30 30 30 32 34 32 30 33 35 37 37 38 39 38 37 39 39 37 36 34 34 34
23 24 25 27 29 30 30 30 30 31 31 32 33 34 35 35 34 33 32 32 32 31 31 31 31 31 31 31 31 32 32 32 33 34 34 34 35 35 35 35 36 36 36 37 37 37 37 37 38 37 36 37 36 35 35 34 34 34 33 31 32 35 33 28 27 29 29 28 30 33 34 34 35 39 41 41 40 40 40 39 39 40 41 40 39 38 37 37
23 24 24 25 27 29 30 30 30 31 32 32 34 34 35 36 36 36 36 36 35 35 34 34 34 34 34 34 34 34 34 34 35 36 36 36 36 37 38 38 38 38 38 38 38 38 38 39 39 38 38 38 37 37 37 37 37 37 37 36 35 36 35 32 33 33 30 30 31 31 32 33 37 40 42 40 40 41 41 41 42 43 43 42 41 41 41 41
23 23 24 25 27 29 29 29 30 31 32 32 34 34 35 36 37 37 38 38 38 38 38 37 37 37 37 37 37 37 37 37 38 38 38 39 39 39 40 40 40 40 39 39 39 39 40 40 40 40 39 39 39 39 39 38 37 38 39 39 38 37 36 35 38 37 34 34 35 33 35 39 40 40 40 39 39 41 40 37 37 40 41 42 42 43 43 43
25 24 23 24 27 28 29 29 30 31 32 33 34 34 35 36 37 38 39 39 39 40 40 40 40 40 40 39 39 40 40 40 40 40 40 41 40 41 41 41 41 41 41 41 41 41 41 40 41 41 40 40 40 40 40 39 39 39 39 39 39 38 37 36 37 37 37 39 38 36 40 44 44 43 42 41 41 41 41 38 36 37 39 39 39 40 41 42
27 27 26 25 26 27 28 29 30 31 32 33 35 35 36 37 38 38 38 39 39 39 40 40 40 40 40 40 40 41 41 41 41 41 41 41 41 41 42 42 42 41 41 42 42 42 41 41 42 42 41 41 40 40 41 41 40 40 39 39 39 40 40 39 37 36 37 38 38 39 41 43 42 42 42 42 41 40 40 40 39 39 39 40 39 40 41 41
27 28 28 28 28 27 27 27 28 29 31 32 34 35 36 37 37 38 38 39 39 39 39 40 40 40 40 40 40 41 41 41 41 41 41 41 41 41 42 42 42 42 42 42 42 42 42 42 43 43 42 42 41 40 41 41 42 42 41 41 40 41 41 41 40 39 39 39 40 41 42 42 42 43 44 42 41 40 39 37 38 38 40 44 45 43 43 43
27 28 29 30 30 30 29 29 28 29 30 30 32 33 34 35 36 37 37 38 39 39 39 40 40 40 40 41 41 41 41 41 40 40 40 40 41 41 41 42 42 42 42 43 43 43 42 43 44 43 44 44 42 41 42 42 43 44 44 43 42 42 42 41 41 41 41 42 43 45 45 46 45 44 44 42 40 41 40 39 40 42 43 46 47 45 45 46
25 26 27 29 30 31 31 31 31 31 31 31 31 32 32 33 34 35 35 36 36 37 37 37 38 39 39 39 39 39 39 39 39 39 39 39 40 40 41 41 42 42 43 43 43 43 43 43 43 43 45 44 43 44 44 43 44 46 46 45 44 43 43 43 43 43 42 42 44 46 46 45 44 44 43 41 40 42 43 43 44 44 44 45 45 45 46 47
Wind_Direction
260 261 263 265 267 269 272 275 277 280 281 282 283 283 283 282 281 279 277 274 270 265 260 257 255 253 251 249 250 251 252 253 255 257 260 260 261 262 263 264 265 266 266 265 262 259 255 252 250 249 249 247 246 242 238 236 233 234 234 234 235 236 238 238 237 237 237 239 236 234 232 233 235 235 235 235 235 236 238 241 244 247 249 251 251 250 251 252
261 262 263 265 267 269 272 275 278 281 282 283 284 283 283 282 281 279 277 274 270 264 259 256 254 252 250 250 251 252 252 252 252 253 255 256 258 259 260 260 261 262 263 262 261 258 254 251 249 247 247 246 245 243 239 235 233 233 233 234 236 237 238 238 238 238 238 238 236 233 231 232 234 235 236 238 239 239 240 242 244 247 248 250 250 248 248 248
262 262 263 265 267 269 273 277 280 282 283 284 284 283 282 282 281 279 277 273 269 263 258 255 252 251 250 251 252 252 251 251 251 251 252 254 254 255 257 258 258 259 260 260 259 257 254 252 249 247 247 246 245 243 240 236 234 232 231 233 236 237 238 238 237 237 236 237 236 233 231 231 233 235 237 239 242 243 243 241 238 240 243 245 244 241 241 244
262 262 263 264 267 270 274 279 281 283 284 284 283 283 282 281 280 279 276 272 267 261 256 253 252 251 251 252 253 253 252 251 251 251 251 251 252 253 255 256 257 258 258 258 257 256 254 252 250 248 247 246 244 243 241 237 234 232 230 233 235 235 236 235 235 235 235 236 237 236 234 234 235 236 238 241 244 245 243 239 230 227 230 236 236 234 237 241
262 262 263 264 267 272 276 280 282 283 283 283 283 282 281 281 280 278 274 270 265 259 255 253 252 252 252 253 253 253 253 253 252 251 250 250 250 251 252 254 256 257 257 257 257 255 253 252 250 248 248 246 244 243 240 237 235 233 231 232 233 234 235 233 233 235 235 237 238 238 237 237 238 239 240 241 243 243 241 235 226 222 222 225 227 228 232 237
261 261 262 265 269 273 278 280 281 281 282 282 283 282 281 280 280 277 272 268 262 258 255 253 252 252 253 253 253 253 253 253 253 251 250 249 248 249 250 253 254 256 257 257 257 255 253 251 250 248 248 246 244 243 241 238 238 236 234 234 233 232 233 233 233 236 237 238 239 238 240 240 240 242 242 243 245 246 244 237 228 226 225 225 227 227 230 235
260 261 262 266 270 274 278 279 279 279 280 282 282 281 281 281 279 275 271 266 261 258 256 254 253 252 252 252 252 252 252 253 253 251 250 248 247 248 249 252 254 256 257 257 256 254 252 250 249 248 247 245 243 243 242 241 240 240 238 235 233 232 233 234 235 237 239 240 241 241 243 244 244 246 246 246 248 248 246 241 235 231 226 223 226 228 231 236
260 260 263 266 270 274 275 275 276 277 278 280 281 281 281 280 278 274 269 265 261 259 258 256 255 254 253 252 251 250 250 251 252 251 250 248 247 247 249 251 254 255 256 256 255 254 252 249 247 245 244 243 243 243 242 243 242 240 239 236 235 235 235 236 236 238 240 242 243 243 245 247 248 250 250 250 249 247 244 242 241 237 229 223 225 229 233 235
259 260 263 265 268 270 271 271 272 272 274 277 279 281 280 281 278 272 268 265 263 262 261 259 257 255 253 251 250 249 249 250 251 252 251 250 250 251 252 253 255 256 255 254 253 252 250 248 245 243 242 241 241 242 241 242 242 240 240 239 238 239 239 239 238 240 242 244 245 246 247 248 250 251 252 251 250 249 247 244 243 239 233 230 228 229 231 233
258 259 261 263 265 266 266 267 267 267 269 272 276 280 281 281 279 273 268 265 265 263 262 260 258 255 252 250 248 248 249 249 250 251 251 251 252 254 254 255 255 255 254 253 250 247 245 243 242 241 241 240 240 241 240 241 242 241 242 241 242 242 242 242 241 242 244 245 247 248 248 249 250 251 249 249 249 250 250 247 244 239 234 231 228 227 229 233
257 258 258 259 260 262 263 263 263 263 264 268 271 276 279 280 279 276 269 266 264 262 260 258 256 253 250 248 246 247 248 248 249 250 250 251 253 254 255 256 256 256 254 252 248 246 242 240 239 238 239 239 239 239 239 240 240 240 240 241 241 242 243 243 242 244 245 246 247 248 250 251 251 251 249 249 249 248 247 246 242 239 236 231 229 228 231 235
255 256 255 255 256 258 260 260 261 262 263 265 267 270 274 276 277 277 274 269 264 259 256 254 252 251 248 246 245 246 248 248 248 247 248 250 252 253 255 256 257 255 254 250 248 246 243 241 239 238 238 238 238 237 237 238 237 237 237 237 239 241 243 242 242 243 244 246 247 249 252 253 250 249 249 247 247 247 244 243 241 240 238 235 235 235 237 241
253 254 253 252 253 255 257 259 261 262 263 264 265 266 268 271 272 273 274 273 269 262 257 253 251 251 249 247 246 247 248 248 247 246 247 247 249 252 255 257 256 253 252 248 245 243 242 242 240 240 240 238 238 238 238 237 236 235 234 233 234 238 241 240 240 242 244 245 246 247 245 248 248 244 245 244 243 244 242 243 243 242 242 242 243 243 243 247
253 253 250 249 249 252 255 258 260 263 263 263 262 262 263 266 267 269 271 271 272 268 264 259 255 253 252 250 250 250 251 250 250 249 249 247 247 249 252 256 257 255 254 248 243 240 239 239 240 241 241 240 240 240 239 237 235 234 232 230 228 233 240 238 237 240 241 242 243 241 227 231 246 240 241 244 242 243 243 244 246 246 247 248 249 250 250 253
252 252 249 247 247 250 253 256 260 262 263 262 261 259 260 261 263 266 268 269 269 268 268 266 263 261 257 254 252 252 253 253 252 251 250 249 249 249 250 255 259 261 260 253 246 240 237 236 238 240 242 243 242 241 240 237 235 232 227 228 222 222 237 236 233 237 238 239 241 239 225 227 248 242 241 245 243 243 244 245 248 249 249 250 253 253 254 256
251 251 248 246 246 248 251 255 259 261 263 262 260 258 258 259 261 264 267 268 268 269 269 269 268 267 264 260 256 254 253 252 251 251 250 251 251 251 251 253 259 262 262 257 251 246 240 237 237 239 240 241 240 239 238 236 234 230 225 228 220 216 234 238 235 237 239 240 242 239 226 227 247 245 244 246 246 246 246 247 249 249 250 251 254 256 257 259
250 249 247 246 245 246 250 254 258 261 263 262 260 259 258 258 260 262 265 266 267 269 269 270 270 268 268 266 262 257 253 251 250 251 251 251 251 251 249 248 251 256 259 257 254 248 242 238 237 237 236 235 236 235 234 233 232 229 227 229 224 220 227 235 234 234 235 237 240 239 232 237 249 249 249 250 251 251 250 250 250 250 252 253 255 257 259 262
250 247 246 244 244 245 248 252 257 260 262 262 261 260 259 260 261 263 265 267 268 269 269 270 270 268 267 267 266 263 258 254 252 253 253 252 252 252 249 246 245 247 252 254 252 247 241 239 236 235 233 229 228 227 225 226 228 228 228 226 226 223 218 226 233 232 233 235 240 242 238 244 250 250 251 252 254 256 255 253 254 255 254 255 256 259 262 264
250 247 244 243 244 245 247 251 255 258 261 262 262 260 260 260 261 263 265 267 268 268 269 269 269 267 266 265 266 266 264 260 256 255 256 255 254 253 252 250 246 244 245 249 249 247 242 241 241 238 234 229 227 229 227 229 230 228 228 226 225 223 220 229 235 232 232 234 241 241 237 244 248 248 249 250 252 255 258 258 258 259 258 259 261 263 265 265
249 247 245 243 243 244 247 250 253 256 259 262 262 260 259 259 261 263 263 265 267 269 270 269 269 268 266 264 264 263 263 261 257 256 256 256 254 253 254 252 249 245 242 242 244 246 244 242 244 242 240 236 232 237 237 236 233 228 227 225 223 223 226 234 235 233 231 230 240 240 237 245 248 248 248 247 248 250 254 257 258 259 261 263 264 267 267 265
248 247 246 245 244 245 247 250 254 257 259 261 262 260 260 259 260 262 263 265 267 268 268 270 270 268 265 263 261 261 261 259 258 256 255 256 254 252 252 252 251 247 242 238 237 241 244 243 244 245 243 237 231 236 240 237 234 229 225 223 223 222 231 237 236 237 234 230 242 243 239 247 249 250 252 248 246 246 248 254 257 259 261 263 265 266 265 264
248 248 247 246 246 246 249 252 256 259 260 261 262 262 261 260 261 262 264 265 266 267 268 269 268 266 266 265 263 262 261 260 258 256 256 255 254 253 252 252 252 250 245 240 236 237 243 245 244 245 244 240 235 236 238 239 238 235 230 229 228 227 236 245 244 243 240 234 244 246 241 249 253 252 255 251 245 244 246 250 254 257 258 260 261 261 262 263
249 248 248 247 248 250 252 255 257 260 262 263 263 264 264 262 263 263 264 265 265 266 266 266 265 265 266 265 264 262 260 260 258 257 256 255 255 254 253 253 252 253 249 245 243 239 243 246 246 246 246 245 244 243 244 246 244 241 240 236 236 237 239 250 252 248 246 242 249 254 250 254 260 257 255 252 245 243 245 248 251 253 255 256 258 260 261 262
249 250 250 251 252 254 256 258 260 263 264 266 266 266 267 266 265 264 264 264 264 264 264 263 263 263 263 263 262 261 259 259 258 257 255 254 255 254 252 251 251 252 250 249 248 243 247 252 252 250 250 248 248 248 248 250 250 247 245 242 243 245 240 243 251 253 252 251 254 258 259 261 264 262 257 254 249 245 245 247 250 252 254 257 261 263 262 261
253 255 256 257 258 259 261 263 264 266 267 268 268 268 268 267 266 265 264 263 262 262 261 261 261 260 262 262 260 260 259 257 256 256 255 254 253 252 251 250 251 251 251 251 248 246 251 255 254 253 254 253 252 252 249 248 251 251 247 245 246 248 246 244 252 256 259 261 259 256 257 262 264 263 260 257 255 254 251 250 251 252 255 258 262 263 262 262
258 260 261 263 263 264 265 266 267 267 267 268 268 268 267 266 266 264 263 262 260 259 258 258 258 260 261 261 260 260 259 256 256 255 254 253 252 252 251 251 251 251 249 249 247 248 253 256 256 257 258 258 258 258 254 248 249 252 250 246 244 247 249 249 252 257 258 260 260 257 252 253 259 263 263 260 258 259 257 254 253 252 254 255 257 259 259 259
260 262 264 265 266 267 267 267 267 266 267 267 266 266 266 265 264 262 261 259 257 258 257 256 256 258 260 260 260 260 258 258 258 256 255 254 253 253 253 252 251 251 250 249 249 251 255 257 258 260 261 263 262 259 258 252 248 252 252 248 247 248 250 252 254 256 255 254 259 262 256 249 251 257 261 261 259 259 260 258 255 253 253 254 254 255 256 256
264 266 267 269 270 270 270 269 268 267 266 266 264 263 262 261 260 259 257 256 256 256 256 256 256 256 257 258 259 259 259 260 259 258 257 256 255 254 254 254 253 254 254 251 251 254 258 260 261 262 264 263 258 257 259 256 251 254 257 255 253 253 254 257 257 257 258 258 259 264 263 257 253 253 259 262 259 258 261 259 257 256 254 254 254 254 255 255
269 271 273 274 276 276 274 271 268 267 266 263 262 260 258 257 257 256 252 253 254 253 253 254 254 254 255 256 257 258 259 260 260 259 259 258 257 256 255 257 257 258 258 255 256 259 261 262 263 264 264 260 260 262 263 259 252 254 259 260 259 259 260 260 259 259 260 261 260 260 263 262 257 254 259 260 255 252 257 260 260 258 256 256 256 255 255 256
272 274 275 277 279 279 277 274 269 266 264 261 260 257 255 255 255 253 250 250 251 249 248 248 249 252 253 253 253 254 255 254 252 252 253 253 254 255 255 257 259 260 261 260 260 262 263 264 265 264 263 262 264 266 265 262 258 255 260 265 266 268 268 266 264 262 263 268 268 262 260 261 261 259 257 260 258 251 254 260 260 258 258 258 258 258 257 258
274 275 276 277 278 277 275 272 269 265 262 260 258 255 253 252 249 249 249 248 247 245 243 244 245 246 247 248 250 251 250 247 246 246 247 247 247 249 251 252 255 256 259 260 261 263 264 265 266 267 266 266 267 268 266 266 264 261 263 266 267 270 272 271 270 268 268 271 269 263 262 264 267 261 256 260 263 255 252 256 257 257 258 259 259 260 260 260
272 273 275 275 276 275 273 269 267 265 260 257 255 253 249 245 243 246 247 243 241 240 240 240 239 239 241 243 244 245 245 243 243 243 244 245 245 245 247 248 249 249 252 256 258 261 261 260 263 266 267 266 266 268 269 269 268 266 263 261 262 264 265 266 267 270 274 272 267 268 270 271 270 262 259 260 260 254 252 254 256 256 256 257 258 259 259 259
268 270 272 273 273 272 271 268 265 262 258 253 251 248 244 240 239 243 242 239 238 238 238 236 234 233 234 235 238 239 235 231 232 235 237 241 242 242 242 243 243 240 242 247 250 253 258 261 263 264 265 264 263 265 267 269 270 269 263 258 259 260 259 264 267 266 268 270 271 272 271 270 267 260 260 259 254 252 251 252 254 254 255 255 255 256 256 254
266 267 269 269 269 268 267 264 261 258 255 251 247 244 242 239 238 238 237 235 234 234 234 234 230 229 230 230 230 228 224 220 222 226 229 233 238 239 238 241 241 240 244 249 248 246 251 260 265 265 266 267 264 261 261 263 266 266 264 259 260 260 260 266 269 262 258 265 272 272 270 271 268 262 264 263 255 251 249 249 252 253 255 255 253 251 251 250
265 264 265 266 267 266 264 261 258 254 251 249 246 242 239 238 236 236 236 233 231 230 230 230 227 227 228 225 220 221 223 223 225 229 233 235 241 244 244 247 248 249 254 255 252 248 246 253 262 267 267 266 266 264 263 266 266 265 267 266 264 264 264 265 266 265 266 268 271 272 272 274 272 268 268 266 260 255 252 250 249 251 253 254 251 245 244 246
264 262 261 262 263 263 262 260 257 253 250 247 245 243 240 239 236 234 235 233 229 228 227 229 229 229 228 223 220 224 229 231 233 238 241 242 246 251 252 256 258 259 262 264 263 261 255 256 261 267 270 268 266 267 267 266 265 263 266 268 266 266 267 267 268 269 270 270 272 272 273 274 273 271 268 265 262 258 254 252 249 249 251 252 251 244 241 239
263 262 260 259 258 259 259 258 255 253 252 248 246 244 242 241 238 234 233 232 231 229 228 231 233 231 230 228 228 231 235 238 239 242 245 246 249 253 256 260 263 265 268 271 271 269 267 268 266 264 267 270 269 269 269 267 266 264 263 265 268 270 270 270 270 270 270 271 272 273 274 274 271 269 268 266 265 262 258 256 254 251 249 249 250 247 244 238
262 261 260 258 256 256 255 255 253 252 251 250 248 245 243 241 239 236 233 232 232 232 230 232 233 232 231 232 234 235 237 241 240 243 248 251 253 255 258 262 265 266 269 271 272 273 274 276 276 270 266 270 271 271 272 273 274 272 268 267 267 266 265 266 267 268 270 273 274 274 275 273 268 266 269 271 271 269 264 260 257 254 250 247 247 246 246 241
261 260 259 258 257 254 252 252 251 250 249 248 248 247 244 242 239 237 234 232 232 233 233 234 234 233 232 233 236 235 237 241 243 247 252 255 258 260 262 266 269 270 272 273 275 277 277 277 278 278 275 273 272 271 271 273 275 275 275 277 277 270 265 264 264 266 268 271 272 271 269 270 269 266 270 274 272 269 266 262 257 254 251 247 243 241 242 242
260 258 257 256 255 254 252 250 248 248 247 247 247 247 246 244 241 238 236 234 233 233 234 235 236 236 236 236 239 240 242 245 249 252 255 258 262 265 267 270 273 275 277 278 279 280 280 280 279 280 282 281 275 271 267 266 268 268 272 279 283 280 274 268 265 266 265 263 264 267 267 269 269 262 262 267 266 266 267 262 256 252 250 246 241 237 239 242
259 257 255 254 253 252 251 249 247 246 246 246 246 247 246 245 243 239 237 236 235 236 236 238 238 239 240 240 242 245 246 249 251 254 258 260 264 267 270 273 276 278 280 281 281 281 282 283 282 281 284 282 276 273 270 267 266 266 267 267 267 269 270 268 265 264 262 258 258 265 268 268 265 260 261 263 262 266 269 265 258 252 247 244 241 239 239 239
259 257 255 253 252 251 250 249 247 246 246 245 246 246 246 246 245 242 240 238 237 238 239 240 241 241 242 243 244 246 247 249 252 255 258 261 264 268 271 274 276 279 281 281 282 282 282 283 283 282 282 280 277 278 277 273 271 270 269 267 265 264 262 262 264 263 262 260 258 261 263 263 264 266 268 266 262 265 269 268 262 256 251 247 245 243 242 240
260 258 256 253 251 249 248 248 247 246 246 245 246 246 247 247 246 245 243 241 240 240 240 242 243 244 245 245 246 247 248 250 253 256 259 262 265 268 271 274 276 277 279 280 281 282 282 282 282 282 282 281 280 281 279 277 276 276 274 271 267 264 260 258 259 259 258 258 259 261 261 261 266 269 270 266 262 263 265 266 265 262 258 255 253 251 249 248
261 259 256 253 251 249 248 248 247 247 247 246 247 247 248 248 248 247 246 245 244 243 243 244 245 247 249 249 250 250 251 254 255 257 260 263 265 267 269 272 274 275 277 278 279 280 279 279 279 280 281 282 283 283 281 279 277 274 272 269 264 264 265 264 262 260 256 253 254 256 257 260 265 266 265 262 260 260 261 263 265 265 262 259 259 257 255 254
261 258 256 254 253 251 249 248 248 249 249 248 249 249 249 250 250 250 250 249 248 247 247 247 248 250 252 253 255 256 256 258 259 260 262 264 266 268 270 271 273 274 275 276 276 277 276 276 277 277 277 278 279 279 278 278 277 276 275 273 268 267 268 266 265 265 262 257 256 255 257 260 262 263 264 264 264 264 264 263 266 268 266 263 261 260 258 257
265 260 256 254 253 253 251 250 249 250 250 250 250 251 251 251 251 252 252 252 252 252 252 252 252 253 254 256 258 259 260 261 263 264 265 266 267 269 271 272 273 274 274 273 273 273 272 273 273 274 274 274 274 273 274 275 276 277 277 275 271 269 267 264 260 259 259 259 258 256 259 260 261 263 267 269 271 273 272 270 270 270 269 267 264 263 262 261
268 264 259 255 254 253 253 251 250 250 251 251 252 252 252 253 252 252 253 254 254 255 256 256 256 257 258 259 260 261 263 264 265 266 268 269 270 270 271 271 272 271 271 270 270 270 270 270 271 271 271 272 272 272 273 273 272 272 273 273 272 270 268 265 263 261 260 258 255 254 256 258 258 261 264 267 271 274 275 274 273 270 268 267 265 264 263 263
265 265 262 258 255 254 254 253 252 252 252 252 253 253 253 253 253 253 253 254 255 256 257 258 259 259 260 261 262 262 264 265 266 267 268 269 269 270 270 269 269 269 269 269 269 269 270 270 270 270 270 270 270 271 271 271 269 268 268 268 269 268 266 265 264 264 263 261 259 258 257 258 261 263 265 267 269 270 271 271 270 269 268 267 265 264 265 265
261 261 261 260 259 257 256 254 253 252 252 252 253 253 253 253 254 254 254 254 255 255 256 257 258 259 259 260 261 262 262 263 264 265 265 266 267 268 268 268 268 268 269 269 269 270 270 270 270 270 270 269 269 269 269 269 269 267 265 265 265 264 264 263 262 262 263 263 264 264 261 261 263 266 267 267 266 266 267 266 264 264 265 266 265 267 269 268
259 258 257 257 259 259 258 256 254 253 252 252 252 252 253 253 254 254 255 255 255 254 255 256 257 257 258 258 259 260 261 261 262 263 263 264 265 266 267 268 269 270 270 270 271 271 271 271 271 271 271 270 269 268 268 268 268 267 265 264 263 262 263 263 264 264 264 264 263 262 261 260 262 263 264 265 265 264 263 262 262 261 263 268 270 271 272 270
260 258 256 256 256 257 257 257 256 255 254 253 253 253 253 253 253 254 255 255 255 255 255 256 257 257 257 258 259 260 261 261 262 263 264 265 265 266 267 268 270 270 271 271 272 272 271 271 272 272 272 271 271 270 268 268 268 268 266 265 264 264 264 265 265 264 263 263 262 260 261 262 263 263 262 261 262 262 260 259 261 264 267 271 272 272 272 271
263 259 257 256 255 255 255 255 255 255 255 254 254 254 254 254 254 254 254 255 256 257 257 257 257 258 258 258 259 260 261 262 263 264 264 265 266 266 267 268 269 269 270 271 271 271 271 271 272 272 272 272 273 271 270 268 268 268 268 268 267 266 266 265 263 262 261 261 263 264 264 264 262 261 261 260 258 258 259 259 260 264 269 270 270 269 270 270
Height
5770 5770 5770 5770 5770 5770 5770 5770 5770 5770 5770 5769 5769 5769 5768 5768 5768 5768 5768 5768 5768 5768 5769 5769 5769 5770 5770 5771 5771 5772 5772 5773 5773 5774 5774 5775 5775 5775 5776 5777 5777 5778 5778 5779 5779 5780 5780 5780 5781 5781 5781 5782 5782 5783 5785 5785 5787 5787 5788 5790 5791 5792 5792 5792 5793 5794 5794 5796 5797 5799 5800 5801 5801 5802 5803 5804 5805 5806 5807 5807 5808 5807 5808 5808 5809 5810 5808 5807
5768 5768 5768 5768 5768 5768 5768 5768 5768 5768 5767 5767 5767 5766 5766 5766 5765 5765 5765 5765 5765 5766 5766 5766 5767 5767 5768 5768 5769 5770 5770 5771 5771 5772 5772 5773 5773 5773 5774 5774 5775 5776 5776 5777 5777 5777 5778 5778 5779 5779 5779 5780 5780 5781 5782 5783 5784 5785 5786 5788 5789 5789 5789 5790 5791 5792 5793 5794 5795 5797 5798 5799 5799 5800 5801 5802 5803 5804 5805 5806 5806 5806 5806 5807 5807 5807 5806 5805
5765 5766 5766 5766 5766 5766 5766 5766 5765 5765 5765 5764 5764 5763 5763 5763 5763 5763 5762 5762 5763 5763 5763 5764 5764 5765 5765 5766 5767 5767 5768 5768 5769 5769 5770 5770 5771 5771 5772 5772 5773 5774 5774 5774 5775 5775 5776 5776 5777 5777 5777 5778 5778 5779 5780 5781 5782 5783 5785 5786 5786 5787 5787 5788 5789 5790 5791 5792 5793 5795 5796 5797 5797 5798 5799 5800 5801 5802 5803 5803 5804 5804 5804 5805 5805 5804 5804 5804
5763 5763 5764 5764 5764 5764 5764 5763 5763 5763 5762 5762 5761 5761 5761 5760 5760 5760 5760 5760 5760 5760 5760 5761 5761 5762 5763 5764 5764 5765 5765 5766 5766 5767 5767 5768 5768 5769 5770 5770 5771 5771 5772 5772 5772 5773 5773 5774 5775 5775 5776 5776 5777 5778 5778 5779 5780 5781 5783 5784 5784 5785 5785 5786 5787 5787 5789 5790 5791 5793 5794 5795 5795 5796 5797 5798 5799 5800 5800 5800 5801 5801 5801 5802 5802 5802 5801 5802
5761 5761 5761 5762 5762 5761 5761 5761 5761 5760 5760 5759 5759 5758 5758 5758 5757 5757 5757 5757 5757 5757 5758 5758 5759 5760 5760 5761 5762 5762 5763 5763 5763 5764 5765 5766 5766 5767 5767 5768 5768 5769 5769 5770 5770 5771 5771 5772 5772 5773 5774 5774 5775 5776 5776 5778 5779 5780 5781 5782 5782 5783 5783 5784 5785 5786 5787 5788 5790 5791 5792 5793 5794 5794 5795 5796 5796 5796 5796 5796 5797 5797 5798 5798 5798 5799 5799 5799
5759 5759 5759 5759 5759 5759 5759 5759 5759 5758 5758 5757 5757 5756 5756 5755 5755 5755 5755 5755 5755 5755 5755 5756 5757 5757 5758 5759 5759 5760 5760 5760 5761 5762 5762 5763 5763 5764 5765 5765 5766 5766 5767 5767 5767 5768 5769 5770 5770 5771 5772 5773 5774 5774 5775 5777 5778 5779 5780 5780 5781 5782 5782 5782 5784 5785 5786 5786 5788 5789 5790 5791 5792 5792 5793 5794 5793 5793 5794 5794 5794 5794 5795 5796 5797 5797 5797 5798
5756 5757 5757 5757 5757 5757 5757 5757 5757 5756 5756 5755 5755 5754 5754 5753 5753 5753 5752 5752 5753 5753 5753 5754 5754 5755 5756 5757 5757 5757 5758 5758 5759 5759 5760 5760 5761 5761 5762 5763 5763 5763 5764 5764 5765 5765 5766 5767 5768 5769 5770 5771 5772 5772 5774 5775 5777 5777 5778 5779 5779 5780 5780 5781 5782 5783 5784 5785 5786 5787 5788 5789 5789 5790 5791 5791 5791 5791 5792 5791 5791 5793 5794 5795 5795 5796 5796 5796
5754 5755 5755 5755 5755 5755 5755 5755 5755 5755 5754 5754 5753 5753 5752 5752 5751 5751 5751 5751 5751 5751 5752 5752 5753 5753 5754 5754 5755 5755 5755 5756 5756 5757 5757 5758 5758 5759 5760 5760 5761 5761 5761 5762 5762 5763 5764 5765 5766 5767 5767 5768 5770 5770 5772 5774 5775 5775 5776 5777 5777 5778 5779 5779 5781 5781 5782 5783 5784 5785 5786 5787 5787 5788 5788 5789 5789 5789 5790 5789 5790 5791 5792 5793 5794 5794 5795 5795
5752 5753 5753 5753 5754 5753 5753 5753 5753 5753 5753 5752 5752 5751 5751 5750 5750 5749 5749 5749 5750 5750 5750 5751 5751 5752 5752 5752 5753 5753 5753 5754 5754 5755 5755 5756 5756 5757 5758 5758 5758 5758 5759 5759 5760 5761 5762 5763 5764 5764 5765 5766 5767 5768 5770 5771 5772 5773 5774 5775 5776 5776 5777 5778 5779 5780 5780 5781 5782 5783 5784 5785 5785 5786 5786 5786 5787 5787 5788 5788 5789 5790 5791 5791 5792 5793 5793 5793
5751 5751 5751 5752 5752 5752 5752 5752 5751 5751 5751 5751 5750 5750 5749 5749 5748 5748 5748 5748 5748 5749 5749 5749 5750 5750 5750 5751 5751 5751 5752 5752 5752 5753 5753 5754 5755 5755 5755 5756 5756 5756 5757 5757 5758 5758 5759 5760 5761 5762 5763 5764 5765 5766 5768 5768 5769 5771 5772 5773 5774 5774 5775 5776 5777 5778 5778 5779 5780 5781 5782 5783 5783 5784 5784 5784 5785 5785 5786 5786 5787 5788 5789 5790 5790 5791 5792 5792
5749 5749 5749 5750 5750 5750 5750 5750 5750 5750 5750 5749 5749 5749 5748 5748 5747 5747 5747 5747 5747 5748 5748 5748 5748 5749 5749 5749 5749 5749 5750 5750 5751 5751 5752 5752 5753 5753 5753 5754 5754 5754 5755 5755 5755 5756 5757 5757 5758 5759 5760 5761 5762 5763 5765 5765 5767 5768 5769 5770 5771 5771 5772 5774 5775 5775 5776 5777 5778 5779 5780 5782 5782 5782 5782 5782 5783 5783 5784 5785 5786 5787 5787 5788 5789 5790 5790 5790
5747 5747 5748 5748 5748 5748 5748 5748 5748 5748 5748 5748 5748 5748 5747 5747 5747 5746 5746 5746 5746 5746 5747 5747 5747 5747 5747 5748 5748 5748 5748 5749 5749 5749 5750 5750 5751 5751 5752 5752 5752 5752 5752 5753 5753 5753 5754 5755 5756 5757 5757 5759 5760 5761 5762 5763 5764 5765 5766 5768 5768 5769 5770 5771 5772 5773 5774 5775 5776 5777 5779 5780 5779 5779 5780 5780 5781 5782 5783 5783 5784 5785 5786 5787 5787 5788 5788 5789
5745 5745 5746 5746 5746 5746 5746 5746 5746 5746 5747 5747 5747 5746 5746 5746 5746 5745 5745 5745 5745 5745 5745 5745 5746 5746 5746 5746 5746 5746 5747 5747 5747 5748 5748 5749 5749 5749 5750 5750 5750 5750 5750 5750 5751 5751 5752 5752 5753 5754 5755 5757 5757 5759 5760 5761 5762 5762 5764 5765 5766 5767 5767 5767 5769 5771 5772 5772 5774 5776 5780 5778 5775 5777 5778 5779 5780 5780 5781 5782 5783 5784 5784 5785 5786 5787 5787 5787
5743 5744 5744 5744 5744 5745 5745 5745 5745 5745 5745 5745 5745 5745 5745 5745 5744 5744 5744 5744 5744 5744 5744 5744 5744 5744 5744 5745 5745 5745 5745 5746 5746 5746 5747 5747 5747 5748 5748 5748 5748 5748 5748 5749 5749 5749 5750 5750 5752 5752 5753 5754 5755 5757 5757 5758 5759 5760 5762 5763 5764 5766 5764 5764 5767 5768 5769 5770 5771 5774 5778 5776 5771 5774 5776 5776 5778 5779 5780 5780 5781 5782 5783 5784 5784 5785 5785 5785
5741 5742 5742 5742 5743 5743 5743 5743 5743 5743 5743 5743 5743 5743 5743 5743 5743 5743 5743 5743 5743 5743 5743 5743 5743 5743 5743 5743 5743 5744 5744 5744 5744 5745 5745 5745 5746 5746 5746 5746 5746 5747 5747 5747 5747 5748 5748 5749 5750 5751 5752 5753 5754 5755 5755 5757 5757 5758 5761 5761 5763 5765 5761 5762 5765 5765 5765 5767 5769 5771 5776 5775 5769 5770 5773 5774 5776 5777 5778 5778 5779 5780 5781 5781 5782 5782 5783 5783
5739 5740 5740 5740 5741 5741 5741 5741 5741 5742 5742 5742 5742 5741 5741 5741 5741 5741 5741 5741 5742 5742 5742 5742 5741 5741 5741 5741 5742 5742 5742 5743 5743 5743 5744 5744 5744 5745 5745 5745 5745 5745 5745 5746 5746 5746 5747 5748 5748 5749 5750 5751 5752 5753 5754 5755 5756 5757 5758 5758 5761 5762 5759 5761 5762 5762 5763 5765 5767 5769 5773 5772 5766 5768 5771 5772 5773 5774 5775 5776 5777 5778 5778 5779 5779 5780 5780 5780
5737 5738 5738 5739 5739 5739 5739 5739 5739 5740 5740 5740 5740 5740 5740 5740 5740 5740 5740 5740 5740 5740 5740 5740 5740 5740 5739 5740 5740 5740 5741 5741 5741 5741 5742 5742 5743 5743 5743 5743 5744 5744 5744 5745 5745 5745 5746 5746 5747 5747 5748 5749 5750 5751 5752 5754 5754 5755 5756 5757 5758 5759 5759 5760 5759 5759 5761 5763 5763 5765 5769 5768 5764 5766 5769 5769 5771 5771 5772 5773 5774 5775 5776 5776 5777 5777 5778 5778
5735 5735 5736 5736 5737 5737 5737 5737 5737 5738 5738 5738 5738 5738 5738 5738 5738 5738 5738 5738 5738 5739 5738 5738 5738 5738 5738 5738 5738 5739 5739 5739 5740 5740 5740 5741 5741 5741 5742 5742 5742 5743 5743 5744 5744 5744 5745 5745 5746 5746 5747 5748 5749 5750 5751 5752 5752 5753 5754 5755 5756 5757 5758 5757 5756 5757 5759 5760 5761 5762 5766 5764 5762 5765 5766 5767 5768 5768 5769 5770 5771 5772 5773 5773 5774 5774 5775 5775
5733 5733 5734 5734 5735 5735 5735 5735 5735 5736 5736 5736 5736 5736 5736 5736 5737 5737 5737 5737 5737 5737 5737 5737 5737 5736 5736 5736 5736 5737 5737 5738 5738 5738 5738 5739 5739 5740 5740 5740 5741 5741 5742 5742 5743 5743 5744 5744 5744 5745 5745 5746 5747 5748 5749 5749 5750 5752 5753 5754 5755 5755 5756 5755 5754 5756 5757 5759 5759 5759 5762 5761 5760 5762 5763 5764 5765 5765 5765 5766 5768 5769 5769 5770 5770 5771 5772 5772
5731 5731 5732 5732 5732 5733 5733 5733 5733 5734 5734 5734 5734 5734 5734 5735 5735 5735 5735 5735 5735 5735 5735 5735 5735 5735 5735 5735 5735 5735 5735 5736 5736 5736 5736 5737 5737 5738 5738 5739 5739 5740 5740 5741 5742 5742 5742 5742 5742 5743 5744 5745 5746 5746 5747 5748 5749 5751 5752 5753 5753 5754 5754 5752 5753 5754 5755 5757 5756 5756 5758 5758 5758 5759 5760 5761 5762 5763 5763 5762 5764 5765 5766 5766 5767 5768 5769 5769
5729 5729 5730 5730 5730 5731 5731 5731 5731 5731 5732 5732 5732 5732 5732 5733 5733 5733 5733 5733 5733 5733 5733 5733 5733 5733 5733 5733 5733 5733 5733 5734 5734 5734 5734 5735 5735 5736 5736 5737 5737 5738 5739 5740 5740 5740 5741 5740 5740 5741 5742 5744 5745 5745 5746 5747 5748 5750 5751 5751 5752 5753 5752 5750 5752 5753 5753 5756 5754 5753 5756 5756 5756 5757 5757 5759 5759 5760 5760 5760 5761 5762 5763 5763 5764 5765 5765 5765
5726 5727 5728 5728 5728 5729 5729 5729 5729 5729 5729 5730 5730 5730 5730 5731 5731 5731 5731 5731 5731 5731 5731 5731 5731 5731 5731 5731 5731 5732 5732 5732 5732 5732 5733 5733 5733 5734 5734 5735 5735 5735 5737 5738 5738 5739 5739 5737 5738 5739 5741 5742 5743 5744 5745 5746 5747 5749 5749 5750 5751 5751 5750 5749 5750 5751 5752 5754 5752 5751 5755 5754 5753 5755 5756 5756 5757 5757 5758 5758 5759 5759 5760 5760 5761 5762 5762 5762
5724 5725 5725 5726 5726 5726 5727 5727 5727 5727 5727 5727 5727 5728 5728 5728 5729 5729 5729 5729 5729 5729 5728 5729 5729 5728 5728 5729 5729 5729 5730 5730 5730 5730 5731 5731 5731 5732 5732 5732 5733 5733 5734 5735 5736 5737 5736 5734 5736 5737 5738 5740 5741 5742 5743 5744 5745 5746 5747 5748 5749 5748 5749 5749 5748 5748 5750 5752 5751 5750 5753 5753 5752 5753 5754 5754 5754 5755 5755 5756 5756 5756 5757 5757 5758 5759 5760 5760
5722 5723 5723 5723 5724 5724 5724 5724 5725 5724 5725 5725 5725 5725 5726 5726 5726 5726 5726 5726 5726 5726 5726 5726 5726 5726 5726 5726 5727 5727 5727 5728 5728 5728 5729 5729 5729 5730 5730 5730 5730 5731 5732 5733 5734 5734 5732 5732 5734 5735 5736 5738 5739 5740 5741 5742 5742 5743 5744 5746 5746 5745 5748 5747 5744 5745 5748 5749 5749 5749 5751 5752 5750 5750 5751 5751 5752 5753 5753 5753 5753 5753 5754 5755 5756 5757 5758 5758
5720 5720 5721 5721 5721 5722 5722 5722 5722 5722 5722 5722 5722 5723 5723 5723 5723 5724 5724 5724 5723 5723 5724 5724 5723 5723 5724 5724 5724 5725 5725 5725 5726 5726 5726 5727 5727 5727 5727 5728 5728 5729 5730 5730 5731 5731 5729 5730 5732 5732 5733 5735 5736 5738 5739 5740 5740 5740 5742 5743 5743 5742 5744 5744 5743 5744 5746 5746 5746 5747 5750 5750 5747 5747 5747 5748 5749 5750 5750 5750 5750 5750 5751 5752 5753 5754 5755 5756
5718 5718 5718 5718 5718 5719 5719 5719 5719 5719 5720 5720 5720 5720 5720 5720 5721 5721 5721 5721 5721 5721 5721 5721 5721 5721 5721 5721 5722 5722 5722 5723 5723 5723 5724 5724 5725 5725 5725 5726 5726 5727 5727 5728 5729 5728 5727 5728 5729 5730 5731 5733 5734 5735 5735 5737 5738 5737 5738 5739 5739 5740 5740 5741 5741 5742 5744 5744 5742 5744 5748 5748 5745 5744 5743 5744 5747 5746 5746 5747 5747 5748 5748 5749 5750 5751 5752 5753
5715 5715 5716 5716 5716 5716 5716 5716 5716 5717 5717 5717 5717 5717 5717 5718 5718 5718 5719 5718 5718 5718 5718 5718 5718 5719 5719 5719 5719 5720 5720 5720 5721 5721 5722 5722 5722 5723 5723 5723 5724 5724 5725 5726 5726 5725 5725 5726 5727 5728 5729 5730 5732 5732 5732 5734 5735 5734 5735 5736 5736 5737 5737 5738 5738 5740 5740 5740 5739 5740 5743 5743 5743 5743 5740 5741 5743 5743 5743 5743 5743 5744 5745 5745 5746 5747 5748 5749
5713 5713 5713 5713 5713 5713 5713 5714 5714 5714 5714 5714 5715 5715 5715 5715 5715 5716 5716 5715 5715 5716 5716 5716 5716 5716 5717 5717 5717 5718 5718 5718 5719 5719 5720 5720 5720 5720 5721 5721 5721 5722 5723 5724 5723 5723 5724 5724 5725 5726 5727 5728 5728 5728 5729 5731 5732 5731 5732 5733 5734 5734 5734 5735 5736 5737 5736 5736 5737 5737 5738 5739 5741 5740 5738 5738 5740 5740 5739 5737 5738 5740 5741 5741 5742 5743 5744 5745
5711 5711 5711 5711 5711 5711 5711 5711 5711 5711 5711 5712 5712 5712 5712 5712 5713 5714 5714 5713 5713 5714 5714 5714 5714 5714 5715 5715 5715 5715 5716 5716 5717 5717 5717 5718 5718 5718 5718 5718 5719 5720 5720 5721 5721 5721 5722 5722 5723 5724 5725 5725 5725 5725 5726 5728 5729 5729 5729 5730 5731 5731 5732 5732 5733 5734 5733 5733 5735 5735 5734 5735 5737 5737 5736 5735 5736 5736 5734 5733 5734 5736 5736 5737 5738 5739 5740 5741
5708 5708 5708 5708 5708 5708 5708 5708 5708 5708 5709 5709 5709 5710 5710 5710 5711 5711 5711 5711 5711 5711 5712 5712 5712 5713 5713 5713 5713 5713 5714 5714 5715 5715 5715 5716 5716 5716 5716 5717 5717 5718 5718 5719 5719 5719 5720 5720 5720 5721 5722 5722 5722 5723 5724 5725 5726 5727 5727 5728 5728 5728 5729 5729 5730 5730 5730 5729 5731 5731 5731 5731 5733 5734 5733 5732 5733 5732 5730 5730 5730 5731 5731 5733 5734 5735 5736 5737
5706 5706 5706 5706 5706 5706 5705 5705 5706 5706 5706 5706 5707 5707 5707 5708 5709 5709 5709 5709 5709 5709 5710 5710 5710 5711 5711 5711 5711 5711 5712 5712 5713 5713 5713 5714 5714 5714 5715 5715 5716 5716 5717 5717 5717 5718 5718 5718 5718 5718 5719 5720 5720 5720 5721 5722 5723 5724 5726 5726 5726 5727 5726 5727 5727 5726 5726 5727 5727 5727 5727 5726 5729 5730 5728 5727 5728 5728 5727 5727 5727 5727 5728 5729 5730 5731 5732 5733
5703 5703 5703 5703 5703 5703 5703 5703 5703 5703 5704 5704 5704 5705 5705 5706 5706 5706 5707 5707 5707 5707 5707 5708 5709 5709 5709 5709 5709 5710 5710 5711 5711 5711 5712 5712 5712 5712 5713 5713 5714 5715 5715 5716 5716 5716 5716 5715 5716 5716 5717 5717 5718 5718 5719 5719 5721 5722 5723 5724 5724 5724 5723 5723 5724 5723 5724 5724 5723 5723 5723 5723 5725 5725 5723 5723 5724 5724 5724 5723 5724 5725 5725 5726 5726 5727 5728 5729
5700 5700 5700 5700 5700 5700 5700 5700 5701 5701 5701 5702 5702 5702 5703 5703 5704 5704 5704 5704 5705 5705 5706 5706 5707 5707 5708 5708 5708 5708 5709 5709 5710 5710 5710 5711 5711 5711 5712 5712 5713 5713 5714 5714 5714 5715 5714 5714 5714 5714 5714 5715 5716 5717 5717 5718 5718 5719 5721 5721 5721 5722 5720 5720 5721 5722 5722 5722 5719 5719 5719 5719 5721 5721 5719 5721 5721 5721 5721 5720 5721 5721 5722 5723 5724 5724 5724 5724
5696 5696 5697 5697 5697 5698 5698 5698 5698 5698 5699 5699 5700 5700 5700 5700 5701 5702 5702 5702 5703 5703 5704 5704 5705 5706 5706 5706 5706 5707 5707 5707 5708 5709 5709 5709 5709 5710 5710 5711 5711 5712 5712 5713 5713 5713 5713 5713 5713 5713 5713 5713 5714 5715 5715 5716 5716 5717 5718 5718 5719 5719 5719 5718 5718 5718 5719 5718 5716 5715 5716 5717 5718 5717 5716 5717 5717 5717 5718 5718 5718 5718 5719 5719 5720 5721 5721 5721
5693 5693 5693 5694 5694 5695 5695 5695 5695 5696 5696 5697 5697 5697 5698 5698 5699 5699 5699 5700 5701 5701 5702 5703 5703 5704 5704 5704 5704 5705 5705 5706 5706 5707 5707 5708 5708 5708 5708 5709 5709 5710 5710 5711 5711 5712 5712 5712 5711 5711 5711 5712 5712 5712 5713 5714 5714 5715 5715 5716 5716 5717 5716 5716 5715 5715 5716 5716 5714 5713 5713 5714 5715 5713 5712 5713 5713 5714 5714 5714 5715 5715 5715 5716 5717 5717 5718 5718
5689 5689 5690 5690 5691 5691 5692 5692 5692 5693 5693 5694 5694 5695 5695 5696 5696 5697 5697 5698 5698 5699 5700 5701 5701 5702 5702 5702 5702 5703 5703 5704 5705 5705 5705 5705 5706 5706 5706 5707 5707 5708 5708 5709 5709 5709 5710 5710 5709 5709 5709 5709 5710 5710 5710 5711 5712 5712 5713 5713 5713 5714 5713 5713 5712 5713 5713 5712 5711 5711 5710 5711 5711 5710 5709 5709 5709 5710 5710 5711 5712 5712 5713 5713 5713 5714 5715 5716
5685 5686 5686 5687 5687 5688 5688 5689 5689 5690 5690 5691 5691 5692 5693 5693 5694 5694 5694 5695 5696 5697 5698 5699 5699 5699 5699 5700 5700 5701 5701 5702 5702 5703 5703 5703 5703 5703 5704 5704 5705 5705 5706 5706 5706 5707 5708 5707 5707 5708 5707 5707 5708 5707 5708 5708 5709 5710 5710 5710 5710 5710 5710 5710 5710 5709 5709 5708 5708 5707 5707 5708 5708 5706 5706 5706 5706 5707 5707 5707 5708 5709 5710 5710 5711 5711 5712 5713
5681 5682 5682 5683 5684 5684 5684 5685 5686 5687 5687 5688 5688 5689 5690 5690 5691 5691 5692 5692 5693 5694 5695 5695 5696 5696 5697 5697 5697 5698 5699 5699 5699 5700 5700 5700 5700 5700 5701 5701 5702 5703 5703 5704 5703 5704 5705 5705 5704 5705 5705 5705 5705 5705 5705 5705 5706 5706 5707 5707 5707 5707 5707 5706 5706 5706 5705 5704 5704 5704 5703 5704 5704 5703 5702 5702 5703 5703 5703 5703 5704 5705 5706 5707 5708 5709 5710 5710
5677 5678 5678 5679 5680 5680 5681 5682 5682 5683 5684 5684 5685 5685 5686 5687 5687 5688 5689 5689 5690 5691 5692 5692 5692 5693 5694 5694 5694 5695 5696 5696 5696 5697 5697 5697 5697 5697 5698 5698 5699 5699 5700 5700 5700 5701 5701 5702 5702 5701 5702 5702 5702 5703 5703 5703 5703 5703 5703 5703 5704 5704 5704 5704 5703 5702 5702 5701 5700 5700 5700 5700 5701 5701 5700 5699 5699 5699 5700 5700 5700 5701 5703 5704 5705 5706 5707 5708
5673 5673 5674 5675 5675 5676 5677 5678 5678 5679 5680 5681 5681 5682 5682 5683 5684 5685 5685 5686 5687 5688 5688 5689 5689 5690 5690 5691 5691 5692 5693 5693 5693 5694 5694 5694 5694 5694 5694 5695 5695 5695 5696 5696 5697 5697 5697 5698 5698 5698 5698 5699 5700 5699 5700 5700 5700 5699 5699 5700 5700 5700 5700 5700 5699 5699 5699 5698 5697 5696 5696 5697 5699 5698 5697 5696 5696 5696 5696 5697 5697 5698 5699 5700 5702 5703 5704 5705
5668 5668 5669 5670 5671 5672 5673 5673 5674 5675 5676 5677 5678 5678 5679 5679 5680 5681 5682 5683 5684 5684 5685 5685 5686 5686 5687 5688 5688 5689 5689 5690 5690 5690 5690 5690 5690 5690 5690 5691 5691 5692 5692 5692 5692 5693 5693 5693 5694 5694 5694 5695 5695 5695 5695 5696 5696 5696 5696 5697 5697 5696 5696 5695 5695 5695 5695 5694 5694 5693 5692 5693 5694 5694 5694 5694 5693 5693 5693 5693 5694 5694 5695 5696 5698 5699 5700 5701
5663 5663 5665 5666 5667 5667 5668 5669 5670 5671 5672 5673 5673 5674 5675 5676 5677 5677 5678 5679 5680 5681 5681 5682 5682 5683 5683 5684 5685 5685 5686 5686 5686 5686 5686 5686 5686 5687 5687 5687 5688 5688 5688 5688 5688 5689 5689 5689 5689 5689 5690 5690 5690 5690 5691 5691 5691 5692 5692 5693 5693 5693 5693 5691 5690 5691 5691 5690 5690 5689 5688 5688 5688 5688 5689 5690 5689 5689 5688 5688 5689 5690 5691 5692 5693 5694 5696 5697
5659 5659 5660 5661 5662 5663 5664 5664 5666 5667 5667 5668 5669 5670 5671 5672 5673 5674 5675 5675 5676 5677 5677 5678 5678 5679 5680 5680 5681 5681 5682 5682 5682 5683 5682 5682 5683 5683 5683 5683 5684 5684 5684 5684 5684 5684 5684 5684 5684 5683 5684 5684 5684 5685 5685 5685 5686 5686 5686 5687 5687 5687 5688 5687 5687 5687 5686 5685 5685 5685 5684 5683 5683 5684 5684 5684 5684 5683 5683 5683 5684 5685 5686 5687 5688 5689 5690 5691
5656 5655 5656 5656 5657 5658 5659 5660 5661 5662 5663 5664 5664 5665 5666 5667 5669 5670 5670 5671 5672 5673 5673 5674 5675 5675 5676 5676 5677 5677 5678 5678 5678 5678 5679 5678 5678 5679 5679 5679 5680 5680 5680 5680 5679 5680 5680 5679 5679 5679 5678 5678 5679 5679 5680 5680 5680 5680 5681 5681 5681 5680 5681 5682 5682 5682 5681 5681 5682 5681 5679 5680 5680 5679 5679 5678 5678 5678 5678 5678 5679 5680 5682 5682 5683 5684 5685 5686
5652 5652 5652 5652 5652 5653 5654 5656 5657 5658 5658 5659 5660 5660 5662 5663 5664 5665 5666 5667 5668 5668 5669 5670 5670 5671 5671 5672 5672 5673 5673 5673 5673 5674 5674 5674 5674 5674 5675 5675 5675 5675 5675 5675 5675 5675 5675 5674 5674 5674 5674 5674 5674 5674 5674 5674 5674 5674 5675 5675 5675 5675 5675 5677 5677 5677 5675 5676 5677 5676 5675 5677 5676 5673 5673 5673 5673 5674 5674 5674 5674 5675 5676 5677 5678 5679 5680 5681
5648 5648 5648 5648 5648 5649 5650 5651 5652 5653 5654 5655 5655 5656 5657 5658 5659 5660 5661 5661 5662 5663 5664 5665 5666 5666 5667 5667 5668 5668 5668 5669 5668 5668 5669 5669 5669 5670 5670 5670 5670 5670 5670 5670 5670 5670 5669 5669 5669 5669 5669 5669 5669 5669 5668 5668 5668 5667 5667 5668 5668 5668 5669 5670 5671 5670 5671 5672 5671 5670 5671 5672 5671 5669 5669 5669 5669 5669 5669 5669 5669 5669 5670 5671 5671 5672 5673 5674
5644 5644 5644 5645 5644 5644 5645 5647 5648 5648 5649 5650 5650 5651 5652 5653 5654 5655 5655 5656 5657 5658 5659 5659 5660 5661 5662 5662 5662 5662 5663 5663 5663 5663 5663 5663 5664 5664 5664 5664 5664 5664 5664 5664 5664 5664 5663 5663 5663 5663 5663 5663 5663 5662 5662 5663 5663 5662 5661 5660 5661 5662 5663 5664 5663 5664 5666 5665 5664 5666 5666 5664 5665 5666 5666 5665 5664 5663 5663 5662 5662 5662 5663 5663 5664 5665 5666 5667
5640 5640 5640 5640 5640 5640 5641 5642 5643 5643 5644 5645 5645 5646 5647 5647 5648 5649 5650 5651 5652 5653 5653 5654 5655 5655 5656 5657 5657 5657 5657 5658 5658 5658 5658 5658 5658 5658 5658 5658 5658 5658 5658 5658 5658 5658 5657 5657 5657 5657 5657 5657 5657 5656 5656 5656 5656 5656 5656 5655 5655 5656 5657 5657 5657 5658 5659 5658 5658 5660 5660 5657 5658 5660 5661 5660 5660 5659 5658 5657 5656 5656 5655 5656 5657 5658 5660 5661
5636 5636 5636 5636 5636 5636 5637 5637 5638 5639 5639 5640 5640 5641 5642 5642 5642 5643 5644 5645 5646 5647 5648 5648 5649 5650 5650 5651 5651 5651 5651 5652 5652 5652 5652 5652 5652 5652 5651 5651 5652 5652 5652 5651 5651 5652 5651 5651 5650 5650 5651 5651 5651 5651 5650 5650 5649 5649 5649 5649 5650 5650 5650 5651 5652 5653 5653 5652 5652 5653 5653 5652 5653 5654 5654 5655 5654 5654 5653 5652 5651 5650 5649 5649 5651 5652 5653 5654
5631 5631 5632 5632 5631 5632 5632 5633 5634 5634 5634 5635 5635 5636 5637 5637 5637 5638 5639 5640 5640 5641 5642 5642 5643 5644 5645 5645 5645 5645 5646 5646 5646 5646 5646 5646 5646 5646 5645 5645 5645 5645 5645 5645 5645 5645 5645 5644 5644 5644 5644 5644 5645 5645 5644 5643 5642 5641 5642 5643 5643 5644 5644 5645 5646 5647 5647 5646 5647 5646 5645 5646 5647 5647 5648 5649 5649 5648 5647 5645 5645 5644 5643 5643 5644 5646 5646 5647
5626 5626 5627 5627 5627 5628 5628 5628 5629 5629 5629 5630 5630 5631 5632 5632 5632 5633 5633 5634 5635 5636 5637 5637 5637 5638 5639 5639 5639 5639 5640 5640 5640 5640 5640 5640 5640 5640 5640 5639 5639 5639 5639 5639 5638 5639 5639 5638 5637 5637 5636 5637 5638 5638 5637 5637 5635 5634 5634 5636 5637 5637 5638 5639 5640 5641 5641 5639 5639 5639 5639 5640 5641 5641 5641 5642 5642 5641 5641 5640 5638 5637 5637 5638 5638 5639 5639 5640
5621 5621 5622 5622 5622 5623 5623 5624 5624 5624 5624 5625 5626 5626 5627 5627 5627 5628 5628 5629 5629 5630 5631 5632 5632 5632 5632 5633 5633 5634 5634 5634 5634 5634 5634 5634 5634 5634 5634 5634 5634 5633 5633 5633 5632 5632 5632 5631 5632 5631 5629 5630 5631 5630 5630 5630 5629 5627 5628 5629 5630 5631 5632 5632 5632 5633 5634 5633 5631 5631 5632 5634 5634 5633 5634 5636 5635 5634 5634 5634 5632 5632 5632 5633 5632 5632 5632 5632